Location: Home
(42.5358°N, 72.7383°W)
Time: 20:46:52
(UTC-04:00)

First-Move - Pass Details

Date: 22 August 2022
Orbit: 569 x 659 km, 97.6° (Epoch: 27 September)

Event Time Altitude Azimuth Distance (km) Brightness Sun altitude
Rises 04:27:54 0° 18° (NNE) 2,855 ? -17.0°
Reaches altitude 10° 04:30:10 10° 24° (NNE) 1,934 ? -16.6°
Maximum altitude 04:34:13 47° 99° (E) 781 ? -16.0°
Drops below altitude 10° 04:38:08 10° 173° (S) 1,880 ? -15.4°
Enters shadow 04:38:57 - 176° (S) 2,206 ? -15.3°
